GFSNW_prec_precacc_072.txt.gz
Total_Precipitation_Accumulation
0.73 0.69 0.74 0.70 0.79 0.90 0.80 1.01 1.00 1.02 0.91 1.20 0.88 0.57 0.44 0.14 0.02 0.01 0.00 0.00 0.01 0.01 0.02 0.01 0.01 0.01 0.01 0.02 0.01 0.01 0.00 0.09 0.13 0.09 0.01 0.02 0.06 0.02 0.06 0.21 0.07 0.12 0.10 0.04
0.55 0.58 0.55 0.57 0.62 0.85 1.21 0.89 0.96 1.10 0.57 0.46 0.33 0.26 0.04 0.02 0.03 0.02 0.00 0.00 0.00 0.01 0.01 0.01 0.01 0.00 0.00 0.00 0.00 0.01 0.01 0.15 0.19 0.21 0.18 0.11 0.17 0.05 0.09 0.18 0.37 0.26 0.14 0.03
0.60 0.50 0.41 0.43 0.55 0.72 0.95 0.83 1.21 1.65 0.92 0.18 0.06 0.13 0.06 0.03 0.03 0.01 0.01 0.02 0.02 0.01 0.01 0.00 0.00 0.00 0.00 0.00 0.00 0.02 0.11 0.17 0.12 0.13 0.31 0.41 0.32 0.07 0.09 0.38 0.60 0.11 0.05 0.02
0.73 0.60 0.43 0.37 0.54 0.69 0.63 0.53 0.32 0.44 0.55 0.15 0.03 0.04 0.05 0.02 0.01 0.01 0.03 0.04 0.04 0.02 0.02 0.01 0.00 0.00 0.00 0.00 0.02 0.13 0.33 0.25 0.11 0.12 0.22 0.58 0.38 0.14 0.10 0.39 0.19 0.26 0.09 0.04
1.00 0.83 0.53 0.40 0.60 0.59 0.47 0.62 0.18 0.01 0.01 0.02 0.01 0.01 0.02 0.03 0.02 0.03 0.04 0.01 0.01 0.03 0.03 0.01 0.00 0.00 0.00 0.01 0.03 0.13 0.31 0.38 0.33 0.34 0.25 0.35 0.27 0.07 0.11 0.12 0.04 0.05 0.02 0.04
0.88 0.81 0.56 0.34 0.53 0.60 0.57 0.70 0.22 0.03 0.02 0.01 0.00 0.00 0.01 0.01 0.02 0.03 0.00 0.01 0.02 0.03 0.01 0.01 0.01 0.01 0.01 0.01 0.07 0.26 0.41 0.47 0.64 0.48 0.18 0.19 0.26 0.08 0.06 0.09 0.07 0.03 0.04 0.05
0.80 0.78 0.58 0.39 0.44 0.47 0.60 0.72 0.48 0.14 0.05 0.01 0.00 0.00 0.00 0.01 0.02 0.00 0.00 0.00 0.03 0.02 0.01 0.01 0.01 0.00 0.01 0.01 0.01 0.05 0.19 0.42 0.73 0.83 0.44 0.44 0.25 0.10 0.14 0.15 0.12 0.06 0.05 0.07
0.66 0.52 0.41 0.38 0.37 0.27 0.40 0.53 0.53 0.19 0.06 0.01 0.00 0.01 0.01 0.02 0.03 0.01 0.00 0.01 0.00 0.02 0.03 0.05 0.06 0.02 0.01 0.00 0.00 0.01 0.02 0.17 0.40 0.42 0.30 0.15 0.04 0.07 0.11 0.09 0.09 0.03 0.03 0.02
0.71 0.58 0.37 0.32 0.26 0.11 0.26 0.43 0.57 0.28 0.08 0.02 0.00 0.02 0.01 0.04 0.06 0.02 0.01 0.00 0.01 0.05 0.11 0.19 0.13 0.03 0.02 0.01 0.01 0.00 0.01 0.03 0.19 0.15 0.21 0.08 0.02 0.01 0.02 0.02 0.02 0.00 0.00 0.01
0.90 0.57 0.34 0.25 0.21 0.15 0.17 0.44 0.50 0.38 0.10 0.02 0.00 0.02 0.01 0.01 0.01 0.02 0.00 0.02 0.05 0.09 0.16 0.25 0.08 0.02 0.00 0.00 0.01 0.02 0.06 0.12 0.16 0.13 0.17 0.01 0.00 0.00 0.00 0.03 0.02 0.00 0.00 0.00
0.73 0.50 0.32 0.19 0.20 0.17 0.18 0.28 0.37 0.42 0.13 0.02 0.00 0.00 0.01 0.00 0.00 0.02 0.02 0.09 0.13 0.20 0.26 0.24 0.10 0.03 0.01 0.00 0.00 0.00 0.02 0.04 0.06 0.06 0.10 0.01 0.00 0.00 0.00 0.00 0.00 0.00 0.01 0.01
0.52 0.43 0.28 0.16 0.18 0.21 0.25 0.26 0.29 0.25 0.15 0.01 0.00 0.00 0.00 0.00 0.00 0.02 0.01 0.08 0.12 0.22 0.24 0.19 0.09 0.04 0.01 0.00 0.01 0.00 0.00 0.00 0.00 0.00 0.00 0.00 0.00 0.00 0.00 0.00 0.00 0.00 0.00 0.00
0.47 0.36 0.19 0.13 0.16 0.16 0.30 0.30 0.23 0.24 0.25 0.05 0.03 0.02 0.00 0.00 0.00 0.00 0.04 0.07 0.15 0.23 0.21 0.32 0.15 0.06 0.04 0.02 0.01 0.00 0.00 0.00 0.00 0.00 0.00 0.00 0.00 0.00 0.00 0.00 0.00 0.00 0.01 0.01
0.51 0.32 0.16 0.11 0.11 0.16 0.23 0.11 0.10 0.22 0.26 0.19 0.05 0.01 0.02 0.01 0.02 0.02 0.02 0.09 0.17 0.29 0.48 0.33 0.19 0.08 0.03 0.02 0.01 0.00 0.01 0.00 0.00 0.00 0.00 0.00 0.00 0.00 0.00 0.00 0.00 0.00 0.00 0.00
0.49 0.36 0.14 0.15 0.18 0.16 0.08 0.02 0.07 0.16 0.32 0.34 0.18 0.16 0.01 0.01 0.05 0.04 0.06 0.11 0.30 0.34 0.59 0.57 0.22 0.09 0.06 0.02 0.01 0.00 0.00 0.00 0.00 0.00 0.00 0.00 0.00 0.00 0.00 0.00 0.00 0.00 0.00 0.00
0.46 0.22 0.18 0.17 0.10 0.14 0.15 0.20 0.36 0.28 0.32 0.60 0.43 0.34 0.16 0.06 0.09 0.09 0.15 0.22 0.43 0.67 0.50 0.53 0.33 0.13 0.20 0.17 0.05 0.00 0.00 0.00 0.00 0.00 0.00 0.00 0.00 0.00 0.00 0.00 0.00 0.00 0.00 0.00
0.28 0.16 0.13 0.07 0.04 0.11 0.12 0.25 0.62 0.58 0.57 0.68 0.78 0.66 0.48 0.14 0.23 0.27 0.30 0.31 0.55 0.89 0.66 0.41 0.33 0.29 0.53 0.34 0.05 0.00 0.01 0.01 0.01 0.01 0.00 0.00 0.00 0.00 0.00 0.00 0.00 0.00 0.00 0.00
0.14 0.08 0.04 0.01 0.08 0.06 0.07 0.05 0.19 0.49 0.88 0.91 1.04 0.98 0.96 0.32 0.53 0.46 0.40 0.39 0.48 1.03 0.74 0.34 0.24 0.35 0.35 0.20 0.02 0.05 0.04 0.04 0.02 0.01 0.02 0.01 0.01 0.00 0.00 0.00 0.00 0.00 0.00 0.00
0.03 0.00 0.01 0.08 0.06 0.04 0.12 0.21 0.40 0.63 1.02 0.82 0.77 0.90 0.80 0.64 0.64 0.48 0.56 0.47 0.57 0.72 0.54 0.23 0.25 0.27 0.29 0.06 0.08 0.11 0.14 0.15 0.17 0.13 0.06 0.06 0.05 0.02 0.03 0.02 0.03 0.04 0.04 0.04
0.01 0.01 0.04 0.11 0.02 0.05 0.48 0.83 1.06 1.07 0.83 0.58 0.62 0.54 0.45 0.89 0.67 0.60 0.65 0.35 0.56 0.65 0.31 0.24 0.30 0.19 0.03 0.05 0.12 0.09 0.15 0.30 0.34 0.42 0.30 0.17 0.23 0.14 0.10 0.15 0.11 0.12 0.14 0.14
0.00 0.02 0.05 0.04 0.05 0.62 1.16 1.33 1.06 0.65 0.44 0.43 0.40 0.40 0.37 0.48 0.55 0.38 0.42 0.50 0.46 0.70 0.47 0.32 0.31 0.30 0.12 0.07 0.05 0.04 0.08 0.18 0.14 0.31 0.32 0.20 0.30 0.35 0.25 0.29 0.33 0.34 0.35 0.34
0.04 0.06 0.06 0.12 0.44 1.03 0.97 0.96 0.59 0.25 0.21 0.22 0.27 0.28 0.33 0.43 0.30 0.49 0.40 0.36 0.33 0.35 0.32 0.45 0.41 0.27 0.18 0.20 0.09 0.06 0.04 0.06 0.07 0.10 0.22 0.18 0.11 0.16 0.19 0.27 0.30 0.29 0.34 0.36
0.02 0.05 0.16 0.30 0.56 0.73 0.55 0.45 0.25 0.10 0.09 0.08 0.11 0.26 0.22 0.39 0.36 0.41 0.46 0.26 0.16 0.34 0.44 0.40 0.18 0.06 0.03 0.10 0.19 0.20 0.16 0.10 0.25 0.27 0.18 0.11 0.09 0.11 0.14 0.15 0.11 0.10 0.11 0.10
0.01 0.07 0.15 0.25 0.32 0.37 0.27 0.17 0.14 0.05 0.04 0.03 0.05 0.12 0.20 0.27 0.23 0.24 0.26 0.13 0.28 0.49 0.33 0.22 0.07 0.06 0.04 0.02 0.05 0.10 0.14 0.13 0.24 0.56 0.60 0.44 0.44 0.40 0.30 0.21 0.15 0.12 0.11 0.07
0.02 0.10 0.13 0.15 0.22 0.09 0.05 0.04 0.05 0.02 0.02 0.03 0.02 0.08 0.13 0.18 0.23 0.21 0.20 0.28 0.46 0.31 0.26 0.17 0.10 0.09 0.08 0.06 0.03 0.03 0.07 0.13 0.16 0.25 0.33 0.40 0.29 0.16 0.20 0.27 0.25 0.17 0.13 0.10
0.02 0.07 0.15 0.11 0.07 0.04 0.01 0.01 0.02 0.02 0.02 0.05 0.06 0.11 0.14 0.16 0.26 0.21 0.27 0.47 0.40 0.23 0.15 0.10 0.05 0.09 0.07 0.05 0.04 0.01 0.00 0.01 0.06 0.14 0.19 0.24 0.22 0.16 0.13 0.17 0.27 0.23 0.20 0.22
0.03 0.03 0.09 0.10 0.06 0.06 0.04 0.02 0.00 0.01 0.07 0.17 0.25 0.26 0.13 0.12 0.14 0.13 0.21 0.31 0.19 0.09 0.06 0.02 0.01 0.01 0.01 0.01 0.00 0.00 0.00 0.01 0.03 0.09 0.13 0.20 0.25 0.24 0.18 0.16 0.16 0.16 0.22 0.28

GFSNW_prec_precacc_075.txt.gz
Total_Precipitation_Accumulation
0.74 0.70 0.76 0.80 1.17 1.39 1.12 1.17 1.12 1.04 0.91 1.20 0.89 0.57 0.44 0.14 0.02 0.01 0.00 0.00 0.01 0.01 0.02 0.01 0.01 0.01 0.01 0.02 0.01 0.01 0.00 0.09 0.13 0.09 0.01 0.02 0.06 0.02 0.06 0.21 0.07 0.12 0.10 0.04
0.56 0.60 0.58 0.65 0.88 1.06 1.50 1.11 1.12 1.14 0.57 0.46 0.33 0.26 0.04 0.02 0.04 0.02 0.00 0.00 0.00 0.01 0.01 0.01 0.01 0.00 0.00 0.00 0.00 0.01 0.01 0.15 0.19 0.21 0.18 0.11 0.17 0.05 0.09 0.18 0.37 0.26 0.14 0.03
0.63 0.53 0.44 0.55 0.80 0.91 1.23 1.01 1.34 1.71 0.93 0.18 0.06 0.13 0.06 0.03 0.03 0.01 0.01 0.02 0.02 0.01 0.01 0.00 0.00 0.00 0.00 0.00 0.00 0.02 0.11 0.17 0.12 0.13 0.31 0.41 0.32 0.07 0.09 0.38 0.60 0.11 0.05 0.02
0.76 0.61 0.46 0.48 0.74 0.91 0.90 0.64 0.35 0.44 0.55 0.15 0.03 0.04 0.05 0.02 0.01 0.01 0.03 0.04 0.04 0.02 0.02 0.01 0.00 0.00 0.00 0.00 0.02 0.13 0.33 0.25 0.11 0.12 0.22 0.58 0.38 0.14 0.10 0.39 0.19 0.26 0.09 0.04
1.05 0.89 0.56 0.47 0.77 0.75 0.78 0.76 0.19 0.01 0.01 0.02 0.01 0.01 0.02 0.03 0.02 0.03 0.04 0.01 0.01 0.03 0.03 0.01 0.00 0.00 0.00 0.01 0.03 0.13 0.31 0.38 0.33 0.34 0.25 0.35 0.27 0.07 0.11 0.12 0.04 0.05 0.02 0.04
0.99 0.86 0.64 0.46 0.64 0.84 0.77 0.82 0.25 0.03 0.02 0.01 0.00 0.00 0.01 0.01 0.02 0.03 0.00 0.01 0.02 0.03 0.01 0.01 0.01 0.01 0.01 0.01 0.07 0.26 0.41 0.47 0.64 0.48 0.18 0.19 0.26 0.08 0.06 0.09 0.07 0.03 0.04 0.05
0.83 0.81 0.73 0.59 0.67 0.77 0.75 0.75 0.49 0.14 0.05 0.01 0.00 0.00 0.00 0.01 0.02 0.00 0.00 0.00 0.03 0.02 0.01 0.01 0.01 0.00 0.01 0.01 0.01 0.05 0.19 0.42 0.73 0.83 0.44 0.44 0.25 0.10 0.14 0.15 0.12 0.06 0.05 0.07
0.71 0.58 0.49 0.59 0.70 0.41 0.46 0.54 0.53 0.19 0.06 0.01 0.00 0.01 0.01 0.02 0.03 0.01 0.00 0.01 0.00 0.02 0.03 0.05 0.06 0.02 0.01 0.00 0.00 0.01 0.02 0.17 0.40 0.42 0.30 0.15 0.04 0.07 0.11 0.09 0.09 0.03 0.03 0.02
1.00 0.75 0.43 0.42 0.45 0.21 0.26 0.43 0.57 0.28 0.08 0.02 0.00 0.02 0.01 0.04 0.06 0.02 0.01 0.00 0.01 0.05 0.11 0.19 0.13 0.03 0.02 0.01 0.01 0.00 0.01 0.03 0.19 0.15 0.21 0.08 0.02 0.01 0.02 0.02 0.02 0.00 0.00 0.01
1.12 0.77 0.45 0.33 0.33 0.23 0.17 0.44 0.50 0.38 0.10 0.02 0.00 0.02 0.01 0.01 0.01 0.02 0.00 0.02 0.05 0.09 0.16 0.25 0.08 0.02 0.00 0.00 0.01 0.02 0.06 0.12 0.16 0.13 0.17 0.01 0.00 0.00 0.00 0.03 0.02 0.00 0.00 0.00
0.91 0.69 0.47 0.31 0.27 0.19 0.19 0.29 0.37 0.42 0.13 0.02 0.00 0.00 0.01 0.00 0.00 0.02 0.02 0.09 0.13 0.20 0.26 0.24 0.10 0.03 0.01 0.00 0.00 0.00 0.02 0.04 0.06 0.06 0.10 0.01 0.00 0.00 0.00 0.00 0.00 0.00 0.01 0.01
0.63 0.58 0.38 0.20 0.20 0.21 0.25 0.26 0.29 0.25 0.15 0.01 0.00 0.00 0.00 0.00 0.00 0.02 0.01 0.08 0.12 0.22 0.24 0.19 0.09 0.04 0.01 0.00 0.01 0.00 0.00 0.00 0.00 0.00 0.00 0.00 0.00 0.00 0.00 0.00 0.00 0.00 0.00 0.00
0.57 0.45 0.25 0.14 0.17 0.17 0.30 0.30 0.23 0.24 0.25 0.05 0.03 0.02 0.00 0.00 0.00 0.00 0.04 0.07 0.15 0.23 0.21 0.32 0.15 0.06 0.04 0.02 0.01 0.00 0.00 0.00 0.00 0.00 0.00 0.00 0.00 0.00 0.00 0.00 0.00 0.00 0.01 0.01
0.60 0.38 0.20 0.12 0.11 0.16 0.23 0.11 0.10 0.22 0.26 0.19 0.05 0.01 0.02 0.01 0.02 0.02 0.02 0.09 0.17 0.29 0.48 0.33 0.19 0.08 0.03 0.02 0.01 0.00 0.01 0.00 0.00 0.00 0.00 0.00 0.00 0.00 0.00 0.00 0.00 0.00 0.00 0.00
0.53 0.41 0.16 0.15 0.18 0.16 0.08 0.02 0.07 0.16 0.32 0.34 0.18 0.16 0.01 0.01 0.05 0.04 0.06 0.11 0.30 0.34 0.59 0.57 0.22 0.09 0.06 0.02 0.01 0.00 0.00 0.00 0.00 0.00 0.00 0.00 0.00 0.00 0.00 0.00 0.00 0.00 0.00 0.00
0.49 0.24 0.18 0.17 0.10 0.14 0.15 0.20 0.36 0.28 0.32 0.60 0.43 0.34 0.16 0.06 0.09 0.09 0.15 0.22 0.43 0.67 0.50 0.53 0.33 0.13 0.20 0.17 0.05 0.00 0.00 0.00 0.00 0.00 0.00 0.00 0.00 0.00 0.00 0.00 0.00 0.00 0.00 0.00
0.30 0.17 0.13 0.07 0.04 0.11 0.12 0.25 0.62 0.58 0.57 0.68 0.78 0.66 0.48 0.14 0.23 0.27 0.30 0.31 0.55 0.89 0.66 0.41 0.33 0.29 0.53 0.34 0.05 0.00 0.01 0.01 0.01 0.01 0.00 0.00 0.00 0.00 0.00 0.00 0.00 0.00 0.00 0.00
0.16 0.08 0.04 0.01 0.08 0.06 0.07 0.05 0.19 0.49 0.88 0.91 1.04 0.98 0.96 0.32 0.53 0.46 0.40 0.39 0.48 1.03 0.74 0.34 0.24 0.35 0.35 0.20 0.02 0.05 0.04 0.04 0.02 0.01 0.02 0.01 0.01 0.00 0.00 0.00 0.00 0.00 0.00 0.00
0.05 0.00 0.01 0.08 0.06 0.04 0.12 0.21 0.40 0.63 1.02 0.82 0.77 0.90 0.80 0.64 0.64 0.48 0.56 0.47 0.57 0.72 0.54 0.23 0.25 0.27 0.29 0.06 0.08 0.11 0.14 0.15 0.17 0.13 0.06 0.06 0.05 0.02 0.03 0.02 0.03 0.04 0.04 0.04
0.01 0.01 0.04 0.11 0.02 0.05 0.48 0.83 1.06 1.07 0.83 0.58 0.62 0.54 0.45 0.89 0.67 0.60 0.65 0.35 0.56 0.65 0.31 0.24 0.30 0.19 0.03 0.05 0.12 0.09 0.15 0.30 0.34 0.42 0.30 0.17 0.23 0.14 0.10 0.15 0.11 0.12 0.14 0.14
0.00 0.02 0.05 0.04 0.05 0.62 1.16 1.33 1.06 0.65 0.44 0.43 0.40 0.40 0.37 0.48 0.55 0.38 0.42 0.50 0.46 0.70 0.47 0.32 0.31 0.30 0.12 0.07 0.05 0.04 0.08 0.18 0.14 0.31 0.32 0.20 0.30 0.35 0.25 0.29 0.33 0.34 0.35 0.34
0.04 0.06 0.06 0.12 0.44 1.03 0.97 0.96 0.59 0.25 0.21 0.22 0.27 0.28 0.33 0.43 0.30 0.49 0.40 0.36 0.33 0.35 0.32 0.45 0.41 0.27 0.18 0.20 0.09 0.06 0.04 0.06 0.07 0.10 0.22 0.18 0.11 0.16 0.19 0.27 0.30 0.29 0.34 0.36
0.02 0.05 0.16 0.30 0.56 0.73 0.55 0.45 0.25 0.10 0.09 0.08 0.11 0.26 0.22 0.39 0.36 0.41 0.46 0.26 0.16 0.34 0.44 0.40 0.18 0.06 0.03 0.10 0.19 0.20 0.16 0.10 0.25 0.27 0.18 0.11 0.09 0.11 0.14 0.15 0.11 0.10 0.11 0.10
0.01 0.07 0.15 0.25 0.32 0.37 0.27 0.17 0.15 0.05 0.04 0.03 0.05 0.12 0.20 0.27 0.23 0.24 0.26 0.13 0.28 0.49 0.33 0.22 0.07 0.06 0.04 0.02 0.05 0.10 0.14 0.13 0.24 0.56 0.60 0.44 0.44 0.40 0.30 0.21 0.15 0.12 0.11 0.07
0.02 0.10 0.13 0.15 0.22 0.09 0.05 0.04 0.06 0.02 0.02 0.03 0.02 0.08 0.13 0.18 0.23 0.21 0.20 0.28 0.46 0.31 0.26 0.17 0.10 0.09 0.08 0.06 0.03 0.03 0.07 0.13 0.16 0.25 0.33 0.40 0.29 0.16 0.20 0.27 0.25 0.17 0.13 0.10
0.02 0.07 0.15 0.11 0.07 0.05 0.01 0.01 0.02 0.02 0.02 0.05 0.06 0.11 0.14 0.16 0.26 0.21 0.27 0.47 0.40 0.23 0.15 0.10 0.05 0.09 0.07 0.05 0.04 0.01 0.00 0.01 0.06 0.14 0.19 0.24 0.22 0.16 0.13 0.17 0.27 0.23 0.20 0.22
0.03 0.03 0.09 0.10 0.06 0.06 0.04 0.02 0.00 0.01 0.07 0.17 0.25 0.26 0.13 0.12 0.14 0.13 0.21 0.31 0.19 0.09 0.06 0.02 0.01 0.01 0.01 0.01 0.00 0.00 0.00 0.01 0.03 0.09 0.13 0.20 0.25 0.24 0.18 0.16 0.16 0.16 0.22 0.28

GFSNW_prec_precacc_078.txt.gz
Total_Precipitation_Accumulation
0.75 0.72 0.77 0.83 1.29 1.69 1.72 1.47 1.32 1.19 0.95 1.22 0.89 0.57 0.44 0.14 0.02 0.01 0.00 0.00 0.01 0.01 0.02 0.01 0.01 0.01 0.01 0.02 0.01 0.01 0.00 0.09 0.13 0.09 0.01 0.02 0.06 0.02 0.06 0.21 0.07 0.12 0.10 0.04
0.58 0.61 0.60 0.68 0.94 1.22 1.75 1.34 1.35 1.35 0.64 0.48 0.33 0.26 0.04 0.02 0.04 0.02 0.00 0.00 0.00 0.01 0.01 0.01 0.01 0.00 0.00 0.00 0.00 0.01 0.01 0.15 0.19 0.21 0.18 0.11 0.17 0.05 0.09 0.18 0.37 0.26 0.14 0.03
0.66 0.56 0.46 0.56 0.87 1.06 1.41 1.16 1.51 1.92 1.05 0.20 0.06 0.13 0.06 0.03 0.03 0.01 0.01 0.02 0.02 0.01 0.01 0.00 0.00 0.00 0.00 0.00 0.00 0.02 0.11 0.17 0.12 0.13 0.31 0.41 0.32 0.07 0.09 0.38 0.60 0.11 0.05 0.02
0.80 0.64 0.49 0.51 0.84 1.14 1.02 0.71 0.43 0.52 0.61 0.16 0.03 0.04 0.05 0.02 0.01 0.01 0.03 0.04 0.04 0.02 0.02 0.01 0.00 0.00 0.00 0.00 0.02 0.13 0.33 0.25 0.11 0.12 0.22 0.58 0.38 0.14 0.10 0.39 0.19 0.26 0.09 0.04
1.11 0.96 0.59 0.49 0.84 0.87 0.91 0.79 0.26 0.07 0.01 0.02 0.01 0.01 0.02 0.03 0.02 0.03 0.04 0.01 0.01 0.03 0.03 0.01 0.00 0.00 0.00 0.01 0.03 0.13 0.31 0.38 0.33 0.34 0.25 0.35 0.27 0.07 0.11 0.12 0.04 0.05 0.02 0.04
1.04 0.88 0.65 0.47 0.67 0.92 0.89 0.85 0.29 0.03 0.02 0.01 0.00 0.00 0.01 0.01 0.02 0.03 0.00 0.01 0.02 0.03 0.01 0.01 0.01 0.01 0.01 0.01 0.07 0.26 0.41 0.47 0.64 0.48 0.18 0.19 0.26 0.08 0.06 0.09 0.07 0.03 0.04 0.05
0.90 0.82 0.73 0.60 0.68 0.80 0.78 0.77 0.50 0.14 0.05 0.01 0.00 0.00 0.00 0.01 0.02 0.00 0.00 0.00 0.03 0.02 0.01 0.01 0.01 0.00 0.01 0.01 0.01 0.05 0.19 0.42 0.73 0.83 0.44 0.44 0.25 0.10 0.14 0.15 0.12 0.06 0.05 0.07
0.74 0.59 0.51 0.63 0.78 0.45 0.49 0.55 0.53 0.19 0.06 0.01 0.00 0.01 0.01 0.02 0.03 0.01 0.00 0.01 0.00 0.02 0.03 0.05 0.06 0.02 0.01 0.00 0.00 0.01 0.02 0.17 0.40 0.42 0.30 0.15 0.04 0.07 0.11 0.09 0.09 0.03 0.03 0.02
1.12 0.81 0.48 0.46 0.46 0.22 0.27 0.43 0.57 0.28 0.08 0.02 0.00 0.02 0.01 0.04 0.06 0.02 0.01 0.00 0.01 0.05 0.11 0.19 0.13 0.03 0.02 0.01 0.01 0.00 0.01 0.03 0.19 0.15 0.21 0.08 0.02 0.01 0.02 0.02 0.02 0.00 0.00 0.01
1.30 0.95 0.56 0.36 0.35 0.23 0.17 0.44 0.50 0.38 0.10 0.02 0.00 0.02 0.01 0.01 0.01 0.02 0.00 0.02 0.05 0.09 0.16 0.25 0.08 0.02 0.00 0.00 0.01 0.02 0.06 0.12 0.16 0.13 0.17 0.01 0.00 0.00 0.00 0.03 0.02 0.00 0.00 0.00
0.94 0.78 0.59 0.35 0.29 0.20 0.19 0.29 0.37 0.42 0.13 0.02 0.00 0.00 0.01 0.00 0.00 0.02 0.02 0.09 0.13 0.20 0.26 0.24 0.10 0.03 0.01 0.00 0.00 0.00 0.02 0.04 0.06 0.06 0.10 0.01 0.00 0.00 0.00 0.00 0.00 0.00 0.01 0.01
0.64 0.59 0.41 0.23 0.22 0.21 0.25 0.26 0.29 0.25 0.15 0.01 0.00 0.00 0.00 0.00 0.00 0.02 0.01 0.08 0.12 0.22 0.24 0.19 0.09 0.04 0.01 0.00 0.01 0.00 0.00 0.00 0.00 0.00 0.00 0.00 0.00 0.00 0.00 0.00 0.00 0.00 0.00 0.00
0.58 0.45 0.25 0.14 0.17 0.17 0.30 0.30 0.23 0.24 0.25 0.05 0.03 0.02 0.00 0.00 0.00 0.00 0.04 0.07 0.15 0.23 0.21 0.32 0.15 0.06 0.04 0.02 0.01 0.00 0.00 0.00 0.00 0.00 0.00 0.00 0.00 0.00 0.00 0.00 0.00 0.00 0.01 0.01
0.60 0.38 0.20 0.12 0.11 0.16 0.23 0.11 0.10 0.22 0.26 0.19 0.05 0.01 0.02 0.01 0.02 0.02 0.02 0.09 0.17 0.29 0.48 0.33 0.19 0.08 0.03 0.02 0.01 0.00 0.01 0.00 0.00 0.00 0.00 0.00 0.00 0.00 0.00 0.00 0.00 0.00 0.00 0.00
0.53 0.41 0.16 0.15 0.18 0.16 0.08 0.02 0.07 0.16 0.32 0.34 0.18 0.16 0.01 0.01 0.05 0.04 0.06 0.11 0.30 0.34 0.59 0.57 0.22 0.09 0.06 0.02 0.01 0.00 0.00 0.00 0.00 0.00 0.00 0.00 0.00 0.00 0.00 0.00 0.00 0.00 0.00 0.00
0.49 0.25 0.18 0.17 0.10 0.14 0.15 0.20 0.36 0.28 0.32 0.60 0.43 0.34 0.16 0.06 0.09 0.09 0.15 0.22 0.43 0.67 0.50 0.53 0.33 0.13 0.20 0.17 0.05 0.00 0.00 0.00 0.00 0.00 0.00 0.00 0.00 0.00 0.00 0.00 0.00 0.00 0.00 0.00
0.30 0.17 0.13 0.07 0.04 0.11 0.12 0.25 0.62 0.58 0.57 0.68 0.78 0.66 0.48 0.14 0.23 0.27 0.30 0.31 0.55 0.89 0.66 0.41 0.33 0.29 0.53 0.34 0.05 0.00 0.01 0.01 0.01 0.01 0.00 0.00 0.00 0.00 0.00 0.00 0.00 0.00 0.00 0.00
0.16 0.08 0.04 0.01 0.08 0.06 0.07 0.05 0.19 0.49 0.88 0.91 1.04 0.98 0.96 0.32 0.53 0.46 0.40 0.39 0.48 1.03 0.74 0.34 0.24 0.35 0.35 0.20 0.02 0.05 0.04 0.04 0.02 0.01 0.02 0.01 0.01 0.00 0.00 0.00 0.00 0.00 0.00 0.00
0.05 0.00 0.01 0.08 0.06 0.04 0.12 0.21 0.40 0.63 1.02 0.82 0.77 0.90 0.80 0.64 0.64 0.48 0.56 0.47 0.57 0.72 0.54 0.23 0.25 0.27 0.29 0.06 0.08 0.11 0.14 0.15 0.17 0.13 0.06 0.06 0.05 0.02 0.03 0.02 0.03 0.04 0.04 0.04
0.01 0.01 0.04 0.11 0.02 0.05 0.48 0.83 1.06 1.07 0.83 0.58 0.62 0.54 0.45 0.89 0.67 0.60 0.65 0.35 0.56 0.65 0.31 0.24 0.30 0.19 0.03 0.05 0.12 0.09 0.15 0.30 0.34 0.42 0.30 0.17 0.23 0.14 0.10 0.15 0.11 0.12 0.14 0.14
0.00 0.02 0.05 0.04 0.05 0.62 1.16 1.33 1.06 0.65 0.44 0.43 0.40 0.40 0.37 0.48 0.55 0.38 0.42 0.50 0.46 0.70 0.47 0.32 0.31 0.30 0.12 0.07 0.05 0.04 0.08 0.18 0.14 0.31 0.32 0.20 0.30 0.35 0.25 0.29 0.33 0.34 0.35 0.34
0.04 0.06 0.06 0.12 0.44 1.03 0.97 0.96 0.59 0.25 0.21 0.22 0.27 0.28 0.33 0.43 0.30 0.49 0.40 0.36 0.33 0.35 0.32 0.45 0.41 0.27 0.18 0.20 0.09 0.06 0.04 0.06 0.07 0.10 0.22 0.18 0.11 0.16 0.19 0.27 0.30 0.29 0.34 0.36
0.02 0.05 0.16 0.30 0.56 0.73 0.55 0.45 0.25 0.10 0.09 0.08 0.11 0.26 0.22 0.39 0.36 0.41 0.46 0.26 0.16 0.34 0.44 0.40 0.18 0.06 0.03 0.10 0.19 0.20 0.16 0.10 0.25 0.27 0.18 0.11 0.09 0.11 0.14 0.15 0.11 0.10 0.11 0.10
0.01 0.07 0.15 0.25 0.32 0.37 0.27 0.17 0.15 0.05 0.04 0.03 0.05 0.12 0.20 0.27 0.23 0.24 0.26 0.13 0.28 0.49 0.33 0.22 0.07 0.06 0.04 0.02 0.05 0.10 0.14 0.13 0.24 0.56 0.60 0.44 0.44 0.40 0.30 0.21 0.15 0.12 0.11 0.07
0.02 0.10 0.13 0.15 0.22 0.09 0.05 0.04 0.06 0.02 0.02 0.03 0.02 0.08 0.13 0.18 0.23 0.21 0.20 0.28 0.46 0.31 0.26 0.17 0.10 0.09 0.08 0.06 0.03 0.03 0.07 0.13 0.16 0.25 0.33 0.40 0.29 0.16 0.20 0.27 0.25 0.17 0.13 0.10
0.02 0.07 0.15 0.11 0.07 0.05 0.01 0.01 0.02 0.02 0.02 0.05 0.06 0.11 0.14 0.16 0.26 0.21 0.27 0.47 0.40 0.23 0.15 0.10 0.05 0.09 0.07 0.05 0.04 0.01 0.00 0.01 0.06 0.14 0.19 0.24 0.22 0.16 0.13 0.17 0.27 0.23 0.20 0.22
0.03 0.03 0.09 0.10 0.06 0.06 0.04 0.02 0.00 0.01 0.07 0.17 0.25 0.26 0.13 0.12 0.14 0.13 0.21 0.31 0.19 0.09 0.06 0.02 0.01 0.01 0.01 0.01 0.00 0.00 0.00 0.01 0.03 0.09 0.13 0.20 0.25 0.24 0.18 0.16 0.16 0.16 0.22 0.28

GFSNW_prec_precacc_084.txt.gz
Total_Precipitation_Accumulation
0.82 0.77 0.81 0.88 1.38 1.97 2.10 1.74 1.55 1.64 1.23 1.52 1.12 0.66 0.45 0.15 0.02 0.01 0.00 0.00 0.01 0.01 0.02 0.01 0.01 0.01 0.01 0.02 0.01 0.01 0.00 0.09 0.14 0.09 0.01 0.02 0.06 0.02 0.06 0.21 0.07 0.12 0.10 0.04
0.64 0.65 0.64 0.71 0.95 1.34 1.98 1.52 1.72 1.88 0.90 0.73 0.51 0.28 0.05 0.03 0.04 0.02 0.00 0.00 0.00 0.01 0.01 0.01 0.01 0.00 0.00 0.00 0.00 0.01 0.01 0.15 0.19 0.21 0.18 0.11 0.17 0.05 0.09 0.18 0.37 0.26 0.14 0.03
0.71 0.60 0.50 0.59 0.89 1.10 1.47 1.24 1.74 2.28 1.27 0.34 0.08 0.13 0.07 0.05 0.03 0.01 0.01 0.02 0.02 0.01 0.01 0.00 0.00 0.00 0.00 0.00 0.00 0.02 0.11 0.17 0.12 0.13 0.31 0.41 0.32 0.07 0.09 0.38 0.60 0.11 0.05 0.02
0.86 0.72 0.56 0.54 0.85 1.19 1.06 0.74 0.47 0.57 0.69 0.22 0.03 0.04 0.06 0.04 0.01 0.01 0.03 0.04 0.04 0.02 0.02 0.01 0.00 0.00 0.00 0.00 0.02 0.13 0.33 0.25 0.11 0.12 0.22 0.58 0.38 0.14 0.10 0.39 0.19 0.26 0.09 0.04
1.19 1.01 0.61 0.50 0.84 0.90 0.92 0.81 0.29 0.09 0.03 0.02 0.01 0.01 0.03 0.04 0.02 0.03 0.04 0.01 0.01 0.03 0.03 0.01 0.00 0.00 0.00 0.01 0.03 0.13 0.31 0.38 0.33 0.34 0.25 0.35 0.27 0.07 0.11 0.12 0.04 0.05 0.02 0.04
1.05 0.89 0.66 0.49 0.67 0.93 0.91 0.86 0.29 0.04 0.02 0.01 0.00 0.00 0.01 0.02 0.02 0.03 0.00 0.01 0.02 0.03 0.01 0.01 0.01 0.01 0.01 0.01 0.07 0.26 0.41 0.47 0.64 0.48 0.18 0.19 0.26 0.08 0.06 0.09 0.07 0.03 0.04 0.05
0.91 0.82 0.73 0.60 0.69 0.81 0.78 0.77 0.50 0.14 0.05 0.01 0.00 0.00 0.00 0.01 0.02 0.00 0.00 0.00 0.03 0.02 0.01 0.01 0.01 0.00 0.01 0.01 0.01 0.05 0.19 0.42 0.73 0.83 0.44 0.44 0.25 0.10 0.14 0.15 0.12 0.06 0.05 0.07
0.74 0.59 0.51 0.63 0.79 0.45 0.49 0.55 0.53 0.19 0.06 0.01 0.00 0.01 0.01 0.02 0.03 0.01 0.00 0.01 0.00 0.02 0.03 0.05 0.06 0.02 0.01 0.00 0.00 0.01 0.02 0.17 0.40 0.42 0.30 0.15 0.04 0.07 0.11 0.09 0.09 0.03 0.03 0.02
1.13 0.82 0.48 0.47 0.47 0.22 0.27 0.43 0.57 0.28 0.08 0.02 0.00 0.02 0.01 0.04 0.06 0.02 0.01 0.00 0.01 0.05 0.11 0.19 0.13 0.03 0.02 0.01 0.01 0.00 0.01 0.03 0.19 0.15 0.21 0.08 0.02 0.01 0.02 0.02 0.02 0.00 0.00 0.01
1.33 0.97 0.57 0.37 0.35 0.23 0.17 0.44 0.50 0.38 0.10 0.02 0.00 0.02 0.01 0.01 0.01 0.02 0.00 0.02 0.05 0.09 0.16 0.25 0.08 0.02 0.00 0.00 0.01 0.02 0.06 0.12 0.16 0.13 0.17 0.01 0.00 0.00 0.00 0.03 0.02 0.00 0.00 0.00
1.01 0.80 0.60 0.35 0.29 0.20 0.19 0.29 0.37 0.42 0.13 0.02 0.00 0.00 0.01 0.00 0.00 0.02 0.02 0.09 0.13 0.20 0.26 0.24 0.10 0.03 0.01 0.00 0.00 0.00 0.02 0.04 0.06 0.06 0.10 0.01 0.00 0.00 0.00 0.00 0.00 0.00 0.01 0.01
0.65 0.60 0.42 0.24 0.22 0.21 0.25 0.26 0.29 0.25 0.15 0.01 0.00 0.00 0.00 0.00 0.00 0.02 0.01 0.08 0.12 0.22 0.24 0.19 0.09 0.04 0.01 0.00 0.01 0.00 0.00 0.00 0.00 0.00 0.00 0.00 0.00 0.00 0.00 0.00 0.00 0.00 0.00 0.00
0.58 0.45 0.26 0.15 0.17 0.17 0.30 0.30 0.23 0.24 0.25 0.05 0.03 0.02 0.00 0.00 0.00 0.00 0.04 0.07 0.15 0.23 0.21 0.32 0.15 0.06 0.04 0.02 0.01 0.00 0.00 0.00 0.00 0.00 0.00 0.00 0.00 0.00 0.00 0.00 0.00 0.00 0.01 0.01
0.60 0.38 0.21 0.12 0.11 0.16 0.23 0.11 0.10 0.22 0.26 0.19 0.05 0.01 0.02 0.01 0.02 0.02 0.02 0.09 0.17 0.29 0.48 0.33 0.19 0.08 0.03 0.02 0.01 0.00 0.01 0.00 0.00 0.00 0.00 0.00 0.00 0.00 0.00 0.00 0.00 0.00 0.00 0.00
0.53 0.43 0.17 0.15 0.18 0.16 0.08 0.02 0.07 0.16 0.32 0.34 0.18 0.16 0.01 0.01 0.05 0.04 0.06 0.11 0.30 0.34 0.59 0.57 0.22 0.09 0.06 0.02 0.01 0.00 0.00 0.00 0.00 0.00 0.00 0.00 0.00 0.00 0.00 0.00 0.00 0.00 0.00 0.00
0.49 0.26 0.19 0.17 0.10 0.14 0.15 0.20 0.36 0.28 0.32 0.60 0.43 0.34 0.16 0.06 0.09 0.09 0.15 0.22 0.43 0.67 0.50 0.53 0.33 0.13 0.20 0.17 0.05 0.00 0.00 0.00 0.00 0.00 0.00 0.00 0.00 0.00 0.00 0.00 0.00 0.00 0.00 0.00
0.30 0.18 0.13 0.07 0.04 0.11 0.12 0.25 0.62 0.58 0.57 0.68 0.78 0.66 0.48 0.14 0.23 0.27 0.30 0.31 0.55 0.89 0.66 0.41 0.33 0.29 0.53 0.34 0.05 0.00 0.01 0.01 0.01 0.01 0.00 0.00 0.00 0.00 0.00 0.00 0.00 0.00 0.00 0.00
0.16 0.08 0.04 0.01 0.08 0.06 0.07 0.05 0.19 0.49 0.88 0.91 1.04 0.98 0.96 0.32 0.53 0.46 0.40 0.39 0.48 1.03 0.74 0.34 0.24 0.35 0.35 0.20 0.02 0.05 0.04 0.04 0.02 0.01 0.02 0.01 0.01 0.00 0.00 0.00 0.00 0.00 0.00 0.00
0.05 0.00 0.01 0.08 0.06 0.04 0.12 0.21 0.40 0.63 1.02 0.82 0.77 0.90 0.80 0.64 0.64 0.48 0.56 0.47 0.57 0.72 0.54 0.23 0.25 0.27 0.29 0.06 0.08 0.11 0.14 0.15 0.17 0.13 0.06 0.06 0.05 0.02 0.03 0.02 0.03 0.04 0.04 0.04
0.01 0.01 0.04 0.11 0.02 0.05 0.48 0.83 1.06 1.07 0.83 0.58 0.62 0.54 0.45 0.89 0.67 0.60 0.65 0.35 0.56 0.65 0.31 0.24 0.30 0.19 0.03 0.05 0.12 0.09 0.15 0.30 0.34 0.42 0.30 0.17 0.23 0.14 0.10 0.15 0.11 0.12 0.14 0.14
0.01 0.02 0.05 0.04 0.05 0.62 1.16 1.33 1.06 0.65 0.44 0.43 0.40 0.40 0.37 0.48 0.55 0.38 0.42 0.50 0.46 0.70 0.47 0.32 0.31 0.30 0.12 0.07 0.05 0.04 0.08 0.18 0.14 0.31 0.32 0.20 0.30 0.35 0.25 0.29 0.33 0.34 0.35 0.34
0.04 0.06 0.06 0.12 0.44 1.03 0.97 0.96 0.59 0.25 0.21 0.22 0.27 0.28 0.33 0.43 0.30 0.49 0.40 0.36 0.33 0.35 0.32 0.45 0.41 0.27 0.18 0.20 0.09 0.06 0.04 0.06 0.07 0.10 0.22 0.18 0.11 0.16 0.19 0.27 0.30 0.29 0.34 0.36
0.02 0.05 0.16 0.30 0.56 0.73 0.55 0.45 0.25 0.10 0.09 0.08 0.11 0.26 0.22 0.39 0.36 0.41 0.46 0.26 0.16 0.34 0.44 0.40 0.18 0.06 0.03 0.10 0.19 0.20 0.16 0.10 0.25 0.27 0.18 0.11 0.09 0.11 0.14 0.15 0.11 0.10 0.11 0.10
0.01 0.07 0.15 0.25 0.32 0.37 0.27 0.17 0.15 0.05 0.04 0.03 0.05 0.12 0.20 0.27 0.23 0.24 0.26 0.13 0.28 0.49 0.33 0.22 0.07 0.06 0.04 0.02 0.05 0.10 0.14 0.13 0.24 0.56 0.60 0.44 0.44 0.40 0.30 0.21 0.15 0.12 0.11 0.07
0.06 0.11 0.13 0.15 0.22 0.09 0.05 0.04 0.06 0.02 0.02 0.03 0.02 0.08 0.13 0.18 0.23 0.21 0.20 0.28 0.46 0.31 0.26 0.17 0.10 0.09 0.08 0.06 0.03 0.03 0.07 0.13 0.16 0.25 0.33 0.40 0.29 0.16 0.20 0.27 0.25 0.17 0.13 0.10
0.06 0.08 0.15 0.11 0.07 0.05 0.01 0.01 0.02 0.02 0.02 0.05 0.06 0.11 0.14 0.16 0.26 0.21 0.27 0.47 0.40 0.23 0.15 0.10 0.05 0.09 0.07 0.05 0.04 0.01 0.00 0.01 0.06 0.14 0.19 0.24 0.22 0.16 0.13 0.17 0.27 0.23 0.20 0.22
0.13 0.03 0.09 0.10 0.06 0.06 0.04 0.02 0.00 0.01 0.07 0.17 0.25 0.26 0.13 0.12 0.14 0.13 0.21 0.31 0.19 0.09 0.06 0.02 0.01 0.01 0.01 0.01 0.00 0.00 0.00 0.01 0.03 0.09 0.13 0.20 0.25 0.24 0.18 0.16 0.16 0.16 0.22 0.28

GFSNW_prec_precacc_087.txt.gz
Total_Precipitation_Accumulation
0.84 0.78 0.82 0.88 1.39 1.99 2.10 1.74 1.68 1.80 1.26 1.57 1.18 0.71 0.46 0.15 0.03 0.01 0.00 0.00 0.01 0.01 0.02 0.01 0.01 0.01 0.01 0.02 0.01 0.01 0.00 0.11 0.14 0.09 0.01 0.02 0.06 0.02 0.06 0.21 0.07 0.12 0.10 0.04
0.65 0.66 0.64 0.71 0.95 1.34 1.98 1.53 1.81 1.96 0.94 0.75 0.56 0.30 0.06 0.08 0.05 0.02 0.00 0.00 0.00 0.01 0.01 0.01 0.01 0.00 0.00 0.00 0.00 0.01 0.01 0.15 0.20 0.21 0.18 0.11 0.17 0.05 0.09 0.18 0.37 0.26 0.14 0.03
0.71 0.60 0.50 0.59 0.89 1.10 1.47 1.25 1.75 2.30 1.29 0.36 0.09 0.14 0.11 0.06 0.03 0.01 0.01 0.02 0.02 0.01 0.01 0.00 0.00 0.00 0.00 0.00 0.00 0.02 0.11 0.17 0.12 0.13 0.31 0.41 0.32 0.07 0.09 0.38 0.60 0.11 0.05 0.02
0.86 0.72 0.56 0.54 0.85 1.19 1.06 0.74 0.47 0.57 0.70 0.22 0.03 0.04 0.07 0.04 0.01 0.01 0.03 0.04 0.04 0.02 0.02 0.01 0.00 0.00 0.00 0.00 0.02 0.13 0.33 0.25 0.11 0.12 0.22 0.58 0.38 0.14 0.10 0.39 0.19 0.26 0.09 0.04
1.19 1.01 0.61 0.50 0.84 0.90 0.92 0.81 0.29 0.09 0.03 0.02 0.01 0.01 0.04 0.04 0.02 0.03 0.04 0.01 0.01 0.03 0.03 0.01 0.00 0.00 0.00 0.01 0.03 0.13 0.31 0.38 0.33 0.34 0.25 0.35 0.27 0.07 0.11 0.12 0.04 0.05 0.02 0.04
1.05 0.89 0.66 0.49 0.67 0.93 0.91 0.86 0.29 0.04 0.02 0.01 0.00 0.00 0.02 0.02 0.02 0.03 0.00 0.01 0.02 0.03 0.01 0.01 0.01 0.01 0.01 0.01 0.07 0.26 0.41 0.47 0.64 0.48 0.18 0.19 0.26 0.08 0.06 0.09 0.07 0.03 0.04 0.05
0.91 0.82 0.73 0.60 0.69 0.81 0.78 0.77 0.50 0.14 0.05 0.01 0.00 0.00 0.00 0.01 0.02 0.00 0.00 0.00 0.03 0.02 0.01 0.01 0.01 0.00 0.01 0.01 0.01 0.05 0.19 0.42 0.73 0.83 0.44 0.44 0.25 0.10 0.14 0.15 0.12 0.06 0.05 0.07
0.74 0.59 0.51 0.63 0.79 0.45 0.49 0.55 0.53 0.19 0.06 0.01 0.00 0.01 0.01 0.02 0.03 0.01 0.00 0.01 0.00 0.02 0.03 0.05 0.06 0.02 0.01 0.00 0.00 0.01 0.02 0.17 0.40 0.42 0.30 0.15 0.04 0.07 0.11 0.09 0.09 0.03 0.03 0.02
1.13 0.82 0.48 0.47 0.47 0.22 0.27 0.43 0.57 0.28 0.08 0.02 0.00 0.02 0.01 0.04 0.06 0.02 0.01 0.00 0.01 0.05 0.11 0.19 0.13 0.03 0.02 0.01 0.01 0.00 0.01 0.03 0.19 0.15 0.21 0.08 0.02 0.01 0.02 0.02 0.02 0.00 0.00 0.01
1.33 0.97 0.57 0.37 0.35 0.23 0.17 0.44 0.50 0.38 0.10 0.02 0.00 0.02 0.01 0.01 0.01 0.02 0.00 0.02 0.05 0.09 0.16 0.25 0.08 0.02 0.00 0.00 0.01 0.02 0.06 0.12 0.16 0.13 0.17 0.01 0.00 0.00 0.00 0.03 0.02 0.00 0.00 0.00
1.01 0.80 0.60 0.35 0.29 0.20 0.19 0.29 0.37 0.42 0.13 0.02 0.00 0.00 0.01 0.00 0.00 0.02 0.02 0.09 0.13 0.20 0.26 0.24 0.10 0.03 0.01 0.00 0.00 0.00 0.02 0.04 0.06 0.06 0.10 0.01 0.00 0.00 0.00 0.00 0.00 0.00 0.01 0.01
0.65 0.60 0.42 0.24 0.22 0.21 0.25 0.26 0.29 0.25 0.15 0.01 0.00 0.00 0.00 0.00 0.00 0.02 0.01 0.08 0.12 0.22 0.24 0.19 0.09 0.04 0.01 0.00 0.01 0.00 0.00 0.00 0.00 0.00 0.00 0.00 0.00 0.00 0.00 0.00 0.00 0.00 0.00 0.00
0.58 0.45 0.26 0.15 0.17 0.17 0.30 0.30 0.23 0.24 0.25 0.05 0.03 0.02 0.00 0.00 0.00 0.00 0.04 0.07 0.15 0.23 0.21 0.32 0.15 0.06 0.04 0.02 0.01 0.00 0.00 0.00 0.00 0.00 0.00 0.00 0.00 0.00 0.00 0.00 0.00 0.00 0.01 0.01
0.60 0.38 0.21 0.12 0.11 0.16 0.23 0.11 0.10 0.22 0.26 0.19 0.05 0.01 0.02 0.01 0.02 0.02 0.02 0.09 0.17 0.29 0.48 0.33 0.19 0.08 0.03 0.02 0.01 0.00 0.01 0.00 0.00 0.00 0.00 0.00 0.00 0.00 0.00 0.00 0.00 0.00 0.00 0.00
0.53 0.43 0.17 0.15 0.18 0.16 0.08 0.02 0.07 0.16 0.32 0.34 0.18 0.16 0.01 0.01 0.05 0.04 0.06 0.11 0.30 0.34 0.59 0.57 0.22 0.09 0.06 0.02 0.01 0.00 0.00 0.00 0.00 0.00 0.00 0.00 0.00 0.00 0.00 0.00 0.00 0.00 0.00 0.00
0.49 0.26 0.19 0.17 0.10 0.14 0.15 0.20 0.36 0.28 0.32 0.60 0.43 0.34 0.16 0.06 0.09 0.09 0.15 0.22 0.43 0.67 0.50 0.53 0.33 0.13 0.20 0.17 0.05 0.00 0.00 0.00 0.00 0.00 0.00 0.00 0.00 0.00 0.00 0.00 0.00 0.00 0.00 0.00
0.30 0.18 0.13 0.07 0.04 0.11 0.12 0.25 0.62 0.58 0.57 0.68 0.78 0.66 0.48 0.14 0.23 0.27 0.30 0.31 0.55 0.89 0.66 0.41 0.33 0.29 0.53 0.34 0.05 0.00 0.01 0.01 0.01 0.01 0.00 0.00 0.00 0.00 0.00 0.00 0.00 0.00 0.00 0.00
0.16 0.08 0.04 0.01 0.08 0.06 0.07 0.05 0.19 0.49 0.88 0.91 1.04 0.98 0.96 0.32 0.53 0.46 0.40 0.39 0.48 1.03 0.74 0.34 0.24 0.35 0.35 0.20 0.02 0.05 0.04 0.04 0.02 0.01 0.02 0.01 0.01 0.00 0.00 0.00 0.00 0.00 0.00 0.00
0.05 0.00 0.01 0.08 0.06 0.04 0.12 0.21 0.40 0.63 1.02 0.82 0.77 0.90 0.80 0.64 0.64 0.48 0.56 0.47 0.57 0.72 0.54 0.23 0.25 0.27 0.29 0.06 0.08 0.11 0.14 0.15 0.17 0.13 0.06 0.06 0.05 0.02 0.03 0.02 0.03 0.04 0.04 0.04
0.01 0.01 0.04 0.11 0.02 0.05 0.48 0.83 1.06 1.07 0.83 0.58 0.62 0.54 0.45 0.89 0.67 0.60 0.65 0.35 0.56 0.65 0.31 0.24 0.30 0.19 0.03 0.05 0.12 0.09 0.15 0.30 0.34 0.42 0.30 0.17 0.23 0.14 0.10 0.15 0.11 0.12 0.14 0.14
0.01 0.02 0.05 0.04 0.05 0.62 1.16 1.33 1.06 0.65 0.44 0.43 0.40 0.40 0.37 0.48 0.55 0.38 0.42 0.50 0.46 0.70 0.47 0.32 0.31 0.30 0.12 0.07 0.05 0.04 0.08 0.18 0.14 0.31 0.32 0.20 0.30 0.35 0.25 0.29 0.33 0.34 0.35 0.34
0.04 0.06 0.06 0.12 0.44 1.03 0.97 0.96 0.59 0.25 0.21 0.22 0.27 0.28 0.33 0.43 0.30 0.49 0.40 0.36 0.33 0.35 0.32 0.45 0.41 0.27 0.18 0.20 0.09 0.06 0.04 0.06 0.07 0.10 0.22 0.18 0.11 0.16 0.19 0.27 0.30 0.29 0.34 0.36
0.02 0.05 0.16 0.30 0.56 0.73 0.55 0.45 0.25 0.10 0.09 0.08 0.11 0.26 0.22 0.39 0.36 0.41 0.46 0.26 0.16 0.34 0.44 0.40 0.18 0.06 0.03 0.10 0.19 0.20 0.16 0.10 0.25 0.27 0.18 0.11 0.09 0.11 0.14 0.15 0.11 0.10 0.11 0.10
0.01 0.07 0.15 0.25 0.32 0.37 0.27 0.17 0.15 0.05 0.04 0.03 0.05 0.12 0.20 0.27 0.23 0.24 0.26 0.13 0.28 0.49 0.33 0.22 0.07 0.06 0.04 0.02 0.05 0.10 0.14 0.13 0.24 0.56 0.60 0.44 0.44 0.40 0.30 0.21 0.15 0.12 0.11 0.07
0.06 0.11 0.13 0.15 0.22 0.09 0.05 0.04 0.06 0.02 0.02 0.03 0.02 0.08 0.13 0.18 0.23 0.21 0.20 0.28 0.46 0.31 0.26 0.17 0.10 0.09 0.08 0.06 0.03 0.03 0.07 0.13 0.16 0.25 0.33 0.40 0.29 0.16 0.20 0.27 0.25 0.17 0.13 0.10
0.07 0.08 0.15 0.11 0.07 0.05 0.01 0.01 0.02 0.02 0.02 0.05 0.06 0.11 0.14 0.16 0.26 0.21 0.27 0.47 0.40 0.23 0.15 0.10 0.05 0.09 0.07 0.05 0.04 0.01 0.00 0.01 0.06 0.14 0.19 0.24 0.22 0.16 0.13 0.17 0.27 0.23 0.20 0.22
0.14 0.03 0.09 0.10 0.06 0.06 0.04 0.02 0.00 0.01 0.07 0.17 0.25 0.26 0.13 0.12 0.14 0.13 0.21 0.31 0.20 0.09 0.06 0.02 0.01 0.01 0.01 0.01 0.00 0.00 0.00 0.01 0.03 0.09 0.13 0.20 0.25 0.24 0.18 0.16 0.16 0.16 0.22 0.28

GFSNW_prec_precacc_093.txt.gz
Total_Precipitation_Accumulation
0.85 0.79 0.82 0.88 1.40 2.00 2.11 1.74 1.70 1.84 1.27 1.58 1.23 0.76 0.46 0.16 0.04 0.01 0.00 0.00 0.01 0.01 0.02 0.01 0.01 0.01 0.02 0.02 0.01 0.01 0.00 0.13 0.16 0.09 0.01 0.02 0.06 0.02 0.06 0.22 0.07 0.12 0.11 0.12
0.65 0.66 0.64 0.71 0.95 1.34 1.98 1.53 1.84 1.97 0.94 0.76 0.57 0.30 0.08 0.09 0.06 0.03 0.00 0.00 0.00 0.01 0.01 0.01 0.01 0.00 0.00 0.00 0.00 0.01 0.01 0.15 0.21 0.22 0.19 0.11 0.17 0.05 0.09 0.18 0.37 0.26 0.14 0.04
0.71 0.60 0.50 0.59 0.89 1.10 1.47 1.25 1.75 2.30 1.30 0.36 0.09 0.14 0.12 0.06 0.03 0.01 0.01 0.02 0.02 0.01 0.01 0.00 0.00 0.00 0.00 0.00 0.00 0.02 0.11 0.17 0.12 0.13 0.31 0.41 0.32 0.07 0.09 0.38 0.60 0.11 0.05 0.02
0.86 0.72 0.56 0.54 0.85 1.19 1.06 0.74 0.47 0.57 0.70 0.23 0.03 0.04 0.07 0.04 0.01 0.01 0.03 0.04 0.04 0.02 0.02 0.01 0.00 0.00 0.00 0.00 0.02 0.13 0.33 0.25 0.11 0.12 0.22 0.58 0.38 0.14 0.10 0.39 0.19 0.26 0.09 0.04
1.19 1.01 0.61 0.50 0.84 0.90 0.92 0.81 0.29 0.09 0.03 0.02 0.01 0.01 0.04 0.04 0.02 0.03 0.04 0.01 0.01 0.03 0.03 0.01 0.00 0.00 0.00 0.01 0.03 0.13 0.31 0.38 0.33 0.34 0.25 0.35 0.27 0.07 0.11 0.12 0.04 0.05 0.02 0.04
1.05 0.89 0.66 0.49 0.67 0.93 0.91 0.86 0.29 0.04 0.02 0.01 0.00 0.00 0.02 0.02 0.02 0.03 0.00 0.01 0.02 0.03 0.01 0.01 0.01 0.01 0.01 0.01 0.07 0.26 0.41 0.47 0.64 0.48 0.18 0.19 0.26 0.08 0.06 0.09 0.07 0.03 0.04 0.05
0.91 0.82 0.73 0.60 0.69 0.81 0.78 0.77 0.50 0.14 0.05 0.01 0.00 0.00 0.00 0.01 0.02 0.00 0.00 0.00 0.03 0.02 0.01 0.01 0.01 0.00 0.01 0.01 0.01 0.05 0.19 0.42 0.73 0.83 0.44 0.44 0.25 0.10 0.14 0.15 0.12 0.06 0.05 0.07
0.74 0.59 0.51 0.63 0.79 0.45 0.49 0.55 0.53 0.19 0.06 0.01 0.00 0.01 0.01 0.02 0.03 0.01 0.00 0.01 0.00 0.02 0.03 0.05 0.06 0.02 0.01 0.00 0.00 0.01 0.02 0.17 0.40 0.42 0.30 0.15 0.04 0.07 0.11 0.09 0.09 0.03 0.03 0.02
1.13 0.82 0.48 0.47 0.47 0.22 0.27 0.43 0.57 0.28 0.08 0.02 0.00 0.02 0.01 0.04 0.06 0.02 0.01 0.00 0.01 0.05 0.11 0.19 0.13 0.03 0.02 0.01 0.01 0.00 0.01 0.03 0.19 0.15 0.21 0.08 0.02 0.01 0.02 0.02 0.02 0.00 0.00 0.01
1.33 0.97 0.57 0.37 0.35 0.23 0.17 0.44 0.50 0.38 0.10 0.02 0.00 0.02 0.01 0.01 0.01 0.02 0.00 0.02 0.05 0.09 0.16 0.25 0.08 0.02 0.00 0.00 0.01 0.02 0.06 0.12 0.16 0.13 0.17 0.01 0.00 0.00 0.00 0.03 0.02 0.00 0.00 0.00
1.01 0.80 0.60 0.35 0.29 0.20 0.19 0.29 0.37 0.42 0.13 0.02 0.00 0.00 0.01 0.00 0.00 0.02 0.02 0.09 0.13 0.20 0.26 0.24 0.10 0.03 0.01 0.00 0.00 0.00 0.02 0.04 0.06 0.06 0.10 0.01 0.00 0.00 0.00 0.00 0.00 0.00 0.01 0.01
0.65 0.60 0.42 0.24 0.22 0.21 0.25 0.26 0.29 0.25 0.15 0.01 0.00 0.00 0.00 0.00 0.00 0.02 0.01 0.08 0.12 0.22 0.24 0.19 0.09 0.04 0.01 0.00 0.01 0.00 0.00 0.00 0.00 0.00 0.00 0.00 0.00 0.00 0.00 0.00 0.00 0.00 0.00 0.00
0.58 0.45 0.26 0.15 0.17 0.17 0.30 0.30 0.23 0.24 0.25 0.05 0.03 0.02 0.00 0.00 0.00 0.00 0.04 0.07 0.15 0.23 0.21 0.32 0.15 0.06 0.04 0.02 0.01 0.00 0.00 0.00 0.00 0.00 0.00 0.00 0.00 0.00 0.00 0.00 0.00 0.00 0.01 0.01
0.60 0.38 0.21 0.12 0.11 0.16 0.23 0.11 0.10 0.22 0.26 0.19 0.05 0.01 0.02 0.01 0.02 0.02 0.02 0.09 0.17 0.29 0.48 0.33 0.19 0.08 0.03 0.02 0.01 0.00 0.01 0.00 0.00 0.00 0.00 0.00 0.00 0.00 0.00 0.00 0.00 0.00 0.00 0.00
0.53 0.43 0.17 0.15 0.18 0.16 0.08 0.02 0.07 0.16 0.32 0.34 0.18 0.16 0.01 0.01 0.05 0.04 0.06 0.11 0.30 0.34 0.59 0.57 0.22 0.09 0.06 0.02 0.01 0.00 0.00 0.00 0.00 0.00 0.00 0.00 0.00 0.00 0.00 0.00 0.00 0.00 0.00 0.00
0.49 0.26 0.19 0.17 0.10 0.14 0.15 0.20 0.36 0.28 0.32 0.60 0.43 0.34 0.16 0.06 0.09 0.09 0.15 0.22 0.43 0.67 0.50 0.53 0.33 0.13 0.20 0.17 0.05 0.00 0.00 0.00 0.00 0.00 0.00 0.00 0.00 0.00 0.00 0.00 0.00 0.00 0.00 0.00
0.30 0.18 0.13 0.07 0.04 0.11 0.12 0.25 0.62 0.58 0.57 0.68 0.78 0.66 0.48 0.14 0.23 0.27 0.30 0.31 0.55 0.89 0.66 0.41 0.33 0.29 0.53 0.34 0.05 0.00 0.01 0.01 0.01 0.01 0.00 0.00 0.00 0.00 0.00 0.00 0.00 0.00 0.00 0.00
0.16 0.08 0.04 0.01 0.08 0.06 0.07 0.05 0.19 0.49 0.88 0.91 1.04 0.98 0.96 0.32 0.53 0.46 0.40 0.39 0.48 1.03 0.74 0.34 0.24 0.35 0.35 0.20 0.02 0.05 0.04 0.04 0.02 0.01 0.02 0.01 0.01 0.00 0.00 0.00 0.00 0.00 0.00 0.00
0.05 0.00 0.01 0.08 0.06 0.04 0.12 0.21 0.40 0.63 1.02 0.82 0.77 0.90 0.80 0.64 0.64 0.48 0.56 0.47 0.57 0.72 0.54 0.23 0.25 0.27 0.29 0.06 0.08 0.11 0.14 0.15 0.17 0.13 0.06 0.06 0.05 0.02 0.03 0.02 0.03 0.04 0.04 0.04
0.01 0.01 0.04 0.11 0.02 0.05 0.48 0.83 1.06 1.07 0.83 0.58 0.62 0.54 0.45 0.89 0.67 0.60 0.65 0.35 0.56 0.65 0.31 0.24 0.30 0.19 0.03 0.05 0.12 0.09 0.15 0.30 0.34 0.42 0.30 0.17 0.23 0.14 0.10 0.15 0.11 0.12 0.14 0.14
0.01 0.02 0.05 0.04 0.05 0.62 1.16 1.33 1.06 0.65 0.44 0.43 0.40 0.40 0.37 0.48 0.55 0.38 0.42 0.50 0.46 0.70 0.47 0.32 0.31 0.30 0.12 0.07 0.05 0.04 0.08 0.18 0.14 0.31 0.32 0.20 0.30 0.35 0.25 0.29 0.33 0.34 0.35 0.34
0.04 0.06 0.06 0.12 0.44 1.03 0.97 0.96 0.59 0.25 0.21 0.22 0.27 0.28 0.33 0.43 0.30 0.49 0.40 0.36 0.33 0.35 0.32 0.45 0.41 0.27 0.18 0.20 0.09 0.06 0.04 0.06 0.07 0.10 0.22 0.18 0.11 0.16 0.19 0.27 0.30 0.29 0.34 0.36
0.02 0.05 0.16 0.30 0.56 0.73 0.55 0.45 0.25 0.10 0.09 0.08 0.11 0.26 0.22 0.39 0.36 0.41 0.46 0.26 0.16 0.34 0.44 0.40 0.18 0.06 0.03 0.10 0.19 0.20 0.16 0.10 0.25 0.27 0.18 0.11 0.09 0.11 0.14 0.15 0.11 0.10 0.11 0.10
0.01 0.07 0.15 0.25 0.32 0.37 0.27 0.17 0.15 0.05 0.04 0.03 0.05 0.12 0.20 0.27 0.23 0.24 0.26 0.13 0.28 0.49 0.33 0.22 0.07 0.06 0.04 0.02 0.05 0.10 0.14 0.13 0.24 0.56 0.60 0.44 0.44 0.40 0.30 0.21 0.15 0.12 0.11 0.07
0.06 0.11 0.13 0.15 0.22 0.09 0.05 0.04 0.06 0.02 0.02 0.03 0.02 0.08 0.13 0.18 0.23 0.21 0.20 0.28 0.46 0.31 0.26 0.17 0.10 0.09 0.08 0.06 0.03 0.03 0.07 0.13 0.16 0.25 0.33 0.40 0.29 0.16 0.20 0.27 0.25 0.17 0.13 0.10
0.07 0.08 0.15 0.11 0.07 0.05 0.01 0.01 0.02 0.02 0.02 0.05 0.06 0.11 0.14 0.16 0.26 0.21 0.27 0.47 0.40 0.24 0.16 0.10 0.05 0.09 0.07 0.05 0.04 0.01 0.00 0.01 0.06 0.14 0.19 0.24 0.22 0.16 0.13 0.17 0.27 0.23 0.20 0.22
0.14 0.03 0.09 0.10 0.06 0.06 0.04 0.02 0.00 0.01 0.07 0.17 0.25 0.26 0.13 0.12 0.14 0.13 0.21 0.31 0.20 0.10 0.06 0.02 0.01 0.01 0.01 0.01 0.00 0.00 0.00 0.01 0.03 0.09 0.13 0.20 0.25 0.24 0.18 0.16 0.16 0.16 0.22 0.28

GFSNW_prec_precacc_096.txt.gz
Total_Precipitation_Accumulation
0.85 0.79 0.82 0.88 1.41 2.00 2.11 1.74 1.70 1.84 1.27 1.58 1.23 0.76 0.46 0.16 0.04 0.01 0.00 0.00 0.01 0.01 0.02 0.01 0.01 0.01 0.02 0.02 0.01 0.01 0.00 0.13 0.16 0.09 0.01 0.02 0.06 0.02 0.06 0.22 0.07 0.12 0.11 0.19
0.65 0.66 0.64 0.71 0.95 1.34 1.98 1.53 1.84 1.97 0.94 0.76 0.57 0.30 0.08 0.09 0.06 0.03 0.00 0.00 0.00 0.01 0.01 0.01 0.01 0.00 0.00 0.00 0.00 0.01 0.01 0.15 0.21 0.22 0.19 0.11 0.17 0.05 0.09 0.18 0.37 0.26 0.14 0.04
0.71 0.60 0.50 0.59 0.89 1.10 1.47 1.25 1.75 2.30 1.30 0.36 0.09 0.14 0.12 0.06 0.03 0.01 0.01 0.02 0.02 0.01 0.01 0.00 0.00 0.00 0.00 0.00 0.00 0.02 0.11 0.17 0.12 0.13 0.31 0.41 0.32 0.07 0.09 0.38 0.60 0.11 0.05 0.02
0.86 0.72 0.56 0.54 0.85 1.19 1.06 0.74 0.47 0.57 0.70 0.23 0.03 0.04 0.07 0.04 0.01 0.01 0.03 0.04 0.04 0.02 0.02 0.01 0.00 0.00 0.00 0.00 0.02 0.13 0.33 0.25 0.11 0.12 0.22 0.58 0.38 0.14 0.10 0.39 0.19 0.26 0.09 0.04
1.19 1.01 0.61 0.50 0.84 0.90 0.92 0.81 0.29 0.09 0.03 0.02 0.01 0.01 0.04 0.04 0.02 0.03 0.04 0.01 0.01 0.03 0.03 0.01 0.00 0.00 0.00 0.01 0.03 0.13 0.31 0.38 0.33 0.34 0.25 0.35 0.27 0.07 0.11 0.12 0.04 0.05 0.02 0.04
1.05 0.89 0.66 0.49 0.67 0.93 0.91 0.86 0.29 0.04 0.02 0.01 0.00 0.00 0.02 0.02 0.02 0.03 0.00 0.01 0.02 0.03 0.01 0.01 0.01 0.01 0.01 0.01 0.07 0.26 0.41 0.47 0.64 0.48 0.18 0.19 0.26 0.08 0.06 0.09 0.07 0.03 0.04 0.05
0.91 0.82 0.73 0.60 0.69 0.81 0.78 0.77 0.50 0.14 0.05 0.01 0.00 0.00 0.00 0.01 0.02 0.00 0.00 0.00 0.03 0.02 0.01 0.01 0.01 0.00 0.01 0.01 0.01 0.05 0.19 0.42 0.73 0.83 0.44 0.44 0.25 0.10 0.14 0.15 0.12 0.06 0.05 0.07
0.74 0.59 0.51 0.63 0.79 0.45 0.49 0.55 0.53 0.19 0.06 0.01 0.00 0.01 0.01 0.02 0.03 0.01 0.00 0.01 0.00 0.02 0.03 0.05 0.06 0.02 0.01 0.00 0.00 0.01 0.02 0.17 0.40 0.42 0.30 0.15 0.04 0.07 0.11 0.09 0.09 0.03 0.03 0.02
1.13 0.82 0.48 0.47 0.47 0.22 0.27 0.43 0.57 0.28 0.08 0.02 0.00 0.02 0.01 0.04 0.06 0.02 0.01 0.00 0.01 0.05 0.11 0.19 0.13 0.03 0.02 0.01 0.01 0.00 0.01 0.03 0.19 0.15 0.21 0.08 0.02 0.01 0.02 0.02 0.02 0.00 0.00 0.01
1.33 0.97 0.57 0.37 0.35 0.23 0.17 0.44 0.50 0.38 0.10 0.02 0.00 0.02 0.01 0.01 0.01 0.02 0.00 0.02 0.05 0.09 0.16 0.25 0.08 0.02 0.00 0.00 0.01 0.02 0.06 0.12 0.16 0.13 0.17 0.01 0.00 0.00 0.00 0.03 0.02 0.00 0.00 0.00
1.01 0.80 0.60 0.35 0.29 0.20 0.19 0.29 0.37 0.42 0.13 0.02 0.00 0.00 0.01 0.00 0.00 0.02 0.02 0.09 0.13 0.20 0.26 0.24 0.10 0.03 0.01 0.00 0.00 0.00 0.02 0.04 0.06 0.06 0.10 0.01 0.00 0.00 0.00 0.00 0.00 0.00 0.01 0.01
0.65 0.60 0.42 0.24 0.22 0.21 0.25 0.26 0.29 0.25 0.15 0.01 0.00 0.00 0.00 0.00 0.00 0.02 0.01 0.08 0.12 0.22 0.24 0.19 0.09 0.04 0.01 0.00 0.01 0.00 0.00 0.00 0.00 0.00 0.00 0.00 0.00 0.00 0.00 0.00 0.00 0.00 0.00 0.00
0.58 0.45 0.26 0.15 0.17 0.17 0.30 0.30 0.23 0.24 0.25 0.05 0.03 0.02 0.00 0.00 0.00 0.00 0.04 0.07 0.15 0.23 0.21 0.32 0.15 0.06 0.04 0.02 0.01 0.00 0.00 0.00 0.00 0.00 0.00 0.00 0.00 0.00 0.00 0.00 0.00 0.00 0.01 0.01
0.60 0.38 0.21 0.12 0.11 0.16 0.23 0.11 0.10 0.22 0.26 0.19 0.05 0.01 0.02 0.01 0.02 0.02 0.02 0.09 0.17 0.29 0.48 0.33 0.19 0.08 0.03 0.02 0.01 0.00 0.01 0.00 0.00 0.00 0.00 0.00 0.00 0.00 0.00 0.00 0.00 0.00 0.00 0.00
0.53 0.43 0.17 0.15 0.18 0.16 0.08 0.02 0.07 0.16 0.32 0.34 0.18 0.16 0.01 0.01 0.05 0.04 0.06 0.11 0.30 0.34 0.59 0.57 0.22 0.09 0.06 0.02 0.01 0.00 0.00 0.00 0.00 0.00 0.00 0.00 0.00 0.00 0.00 0.00 0.00 0.00 0.00 0.00
0.49 0.26 0.19 0.17 0.10 0.14 0.15 0.20 0.36 0.28 0.32 0.60 0.43 0.34 0.16 0.06 0.09 0.09 0.15 0.22 0.43 0.67 0.50 0.53 0.33 0.13 0.20 0.17 0.05 0.00 0.00 0.00 0.00 0.00 0.00 0.00 0.00 0.00 0.00 0.00 0.00 0.00 0.00 0.00
0.30 0.18 0.13 0.07 0.04 0.11 0.12 0.25 0.62 0.58 0.57 0.68 0.78 0.66 0.48 0.14 0.23 0.27 0.30 0.31 0.55 0.89 0.66 0.41 0.33 0.29 0.53 0.34 0.05 0.00 0.01 0.01 0.01 0.01 0.00 0.00 0.00 0.00 0.00 0.00 0.00 0.00 0.00 0.00
0.16 0.08 0.04 0.01 0.08 0.06 0.07 0.05 0.19 0.49 0.88 0.91 1.04 0.98 0.96 0.32 0.53 0.46 0.40 0.39 0.48 1.03 0.74 0.34 0.24 0.35 0.35 0.20 0.02 0.05 0.04 0.04 0.02 0.01 0.02 0.01 0.01 0.00 0.00 0.00 0.00 0.00 0.00 0.00
0.05 0.01 0.01 0.08 0.06 0.04 0.12 0.21 0.40 0.63 1.02 0.82 0.77 0.90 0.80 0.64 0.64 0.48 0.56 0.47 0.57 0.72 0.54 0.23 0.25 0.27 0.29 0.06 0.08 0.11 0.14 0.15 0.17 0.13 0.06 0.06 0.05 0.02 0.03 0.02 0.03 0.04 0.04 0.04
0.01 0.01 0.04 0.11 0.02 0.05 0.48 0.83 1.06 1.07 0.83 0.58 0.62 0.54 0.45 0.89 0.67 0.60 0.65 0.35 0.56 0.65 0.31 0.24 0.30 0.19 0.03 0.05 0.12 0.09 0.15 0.30 0.34 0.42 0.30 0.17 0.23 0.14 0.10 0.15 0.11 0.12 0.14 0.14
0.01 0.02 0.05 0.04 0.05 0.62 1.16 1.33 1.06 0.65 0.44 0.43 0.40 0.40 0.37 0.48 0.55 0.38 0.42 0.50 0.46 0.70 0.47 0.32 0.31 0.30 0.12 0.07 0.05 0.04 0.08 0.18 0.14 0.31 0.32 0.20 0.30 0.35 0.25 0.29 0.33 0.34 0.35 0.34
0.04 0.06 0.06 0.12 0.44 1.03 0.97 0.96 0.59 0.25 0.21 0.22 0.27 0.28 0.33 0.43 0.30 0.49 0.40 0.36 0.33 0.35 0.32 0.45 0.41 0.27 0.18 0.20 0.09 0.06 0.04 0.06 0.07 0.10 0.22 0.18 0.11 0.16 0.19 0.27 0.30 0.29 0.34 0.36
0.02 0.05 0.16 0.30 0.56 0.73 0.55 0.45 0.25 0.10 0.09 0.08 0.11 0.26 0.22 0.39 0.36 0.41 0.46 0.26 0.16 0.34 0.44 0.40 0.18 0.06 0.03 0.10 0.19 0.20 0.16 0.10 0.25 0.27 0.18 0.11 0.09 0.11 0.14 0.15 0.11 0.10 0.11 0.10
0.01 0.07 0.15 0.25 0.32 0.37 0.27 0.17 0.15 0.05 0.04 0.03 0.05 0.12 0.20 0.27 0.23 0.24 0.26 0.13 0.28 0.49 0.33 0.22 0.07 0.06 0.04 0.02 0.05 0.10 0.14 0.13 0.24 0.56 0.60 0.44 0.44 0.40 0.30 0.21 0.15 0.12 0.11 0.07
0.06 0.11 0.13 0.15 0.22 0.09 0.05 0.04 0.06 0.02 0.02 0.03 0.02 0.08 0.13 0.18 0.23 0.21 0.20 0.28 0.46 0.31 0.26 0.17 0.10 0.09 0.08 0.06 0.03 0.03 0.07 0.13 0.16 0.25 0.33 0.40 0.29 0.16 0.20 0.27 0.25 0.17 0.13 0.10
0.07 0.08 0.15 0.11 0.07 0.05 0.01 0.01 0.02 0.02 0.02 0.05 0.06 0.11 0.14 0.16 0.26 0.21 0.27 0.47 0.40 0.24 0.16 0.10 0.05 0.09 0.07 0.05 0.04 0.01 0.00 0.01 0.06 0.14 0.19 0.24 0.22 0.16 0.13 0.17 0.27 0.23 0.20 0.22
0.15 0.03 0.09 0.10 0.06 0.06 0.04 0.02 0.00 0.01 0.07 0.17 0.25 0.26 0.13 0.12 0.14 0.13 0.21 0.31 0.20 0.10 0.06 0.02 0.01 0.01 0.01 0.01 0.00 0.00 0.00 0.01 0.03 0.09 0.13 0.20 0.25 0.24 0.18 0.16 0.16 0.16 0.22 0.28

GFSNW_prec_precacc_102.txt.gz
Total_Precipitation_Accumulation
0.85 0.79 0.82 0.88 1.41 2.00 2.11 1.74 1.70 1.84 1.27 1.58 1.23 0.76 0.46 0.16 0.04 0.01 0.00 0.00 0.01 0.01 0.02 0.01 0.01 0.01 0.02 0.02 0.01 0.01 0.00 0.13 0.16 0.09 0.01 0.02 0.06 0.02 0.06 0.22 0.07 0.12 0.13 0.25
0.65 0.66 0.64 0.71 0.95 1.34 1.98 1.53 1.84 1.97 0.94 0.76 0.57 0.30 0.08 0.09 0.06 0.03 0.00 0.00 0.00 0.01 0.01 0.01 0.01 0.00 0.00 0.00 0.00 0.01 0.01 0.15 0.21 0.22 0.19 0.11 0.17 0.05 0.09 0.18 0.37 0.26 0.14 0.05
0.71 0.60 0.50 0.59 0.89 1.10 1.47 1.25 1.75 2.30 1.30 0.36 0.09 0.14 0.12 0.06 0.03 0.01 0.01 0.02 0.02 0.01 0.01 0.00 0.00 0.00 0.00 0.00 0.00 0.02 0.11 0.17 0.12 0.13 0.31 0.41 0.32 0.07 0.09 0.38 0.60 0.11 0.05 0.02
0.86 0.72 0.56 0.54 0.85 1.19 1.06 0.74 0.47 0.57 0.70 0.23 0.03 0.04 0.07 0.04 0.01 0.01 0.03 0.04 0.04 0.02 0.02 0.01 0.00 0.00 0.00 0.00 0.02 0.13 0.33 0.25 0.11 0.12 0.22 0.58 0.38 0.14 0.10 0.39 0.19 0.26 0.09 0.04
1.19 1.01 0.61 0.50 0.84 0.90 0.92 0.81 0.29 0.09 0.03 0.02 0.01 0.01 0.04 0.04 0.02 0.03 0.04 0.01 0.01 0.03 0.03 0.01 0.00 0.00 0.00 0.01 0.03 0.13 0.31 0.38 0.33 0.34 0.25 0.35 0.27 0.07 0.11 0.12 0.04 0.05 0.02 0.04
1.05 0.89 0.66 0.49 0.67 0.93 0.91 0.86 0.29 0.04 0.02 0.01 0.00 0.00 0.02 0.02 0.02 0.03 0.00 0.01 0.02 0.03 0.01 0.01 0.01 0.01 0.01 0.01 0.07 0.26 0.41 0.47 0.64 0.48 0.18 0.19 0.26 0.08 0.06 0.09 0.07 0.03 0.04 0.05
0.91 0.82 0.73 0.60 0.69 0.81 0.78 0.77 0.50 0.14 0.05 0.01 0.00 0.00 0.00 0.01 0.02 0.00 0.00 0.00 0.03 0.02 0.01 0.01 0.01 0.00 0.01 0.01 0.01 0.05 0.19 0.42 0.73 0.83 0.44 0.44 0.25 0.10 0.14 0.15 0.12 0.06 0.05 0.07
0.74 0.59 0.51 0.63 0.79 0.45 0.49 0.55 0.53 0.19 0.06 0.01 0.00 0.01 0.01 0.02 0.03 0.01 0.00 0.01 0.00 0.02 0.03 0.05 0.06 0.02 0.01 0.00 0.00 0.01 0.02 0.17 0.40 0.42 0.30 0.15 0.04 0.07 0.11 0.09 0.09 0.03 0.03 0.02
1.13 0.82 0.48 0.47 0.47 0.22 0.27 0.43 0.57 0.28 0.08 0.02 0.00 0.02 0.01 0.04 0.06 0.02 0.01 0.00 0.01 0.05 0.11 0.19 0.13 0.03 0.02 0.01 0.01 0.00 0.01 0.03 0.19 0.15 0.21 0.08 0.02 0.01 0.02 0.02 0.02 0.00 0.00 0.01
1.33 0.97 0.57 0.37 0.35 0.23 0.17 0.44 0.50 0.38 0.10 0.02 0.00 0.02 0.01 0.01 0.01 0.02 0.00 0.02 0.05 0.09 0.16 0.25 0.08 0.02 0.00 0.00 0.01 0.02 0.06 0.12 0.16 0.13 0.17 0.01 0.00 0.00 0.00 0.03 0.02 0.00 0.00 0.00
1.01 0.80 0.60 0.35 0.29 0.20 0.19 0.29 0.37 0.42 0.13 0.02 0.00 0.00 0.01 0.00 0.00 0.02 0.02 0.09 0.13 0.20 0.26 0.24 0.10 0.03 0.01 0.00 0.00 0.00 0.02 0.04 0.06 0.06 0.10 0.01 0.00 0.00 0.00 0.00 0.00 0.00 0.01 0.01
0.65 0.60 0.42 0.24 0.22 0.21 0.25 0.26 0.29 0.25 0.15 0.01 0.00 0.00 0.00 0.00 0.00 0.02 0.01 0.08 0.12 0.22 0.24 0.19 0.09 0.04 0.01 0.00 0.01 0.00 0.00 0.00 0.00 0.00 0.00 0.00 0.00 0.00 0.00 0.00 0.00 0.00 0.00 0.00
0.58 0.45 0.26 0.15 0.17 0.17 0.30 0.30 0.23 0.24 0.25 0.05 0.03 0.02 0.00 0.00 0.00 0.00 0.04 0.07 0.15 0.23 0.21 0.32 0.15 0.06 0.04 0.02 0.01 0.00 0.00 0.00 0.00 0.00 0.00 0.00 0.00 0.00 0.00 0.00 0.00 0.00 0.01 0.01
0.60 0.38 0.21 0.12 0.11 0.16 0.23 0.11 0.10 0.22 0.26 0.19 0.05 0.01 0.02 0.01 0.02 0.02 0.02 0.09 0.17 0.29 0.48 0.33 0.19 0.08 0.03 0.02 0.01 0.00 0.01 0.00 0.00 0.00 0.00 0.00 0.00 0.00 0.00 0.00 0.00 0.00 0.00 0.00
0.53 0.43 0.17 0.15 0.18 0.16 0.08 0.02 0.07 0.16 0.32 0.34 0.18 0.16 0.01 0.01 0.05 0.04 0.06 0.11 0.30 0.34 0.59 0.57 0.22 0.09 0.06 0.02 0.01 0.00 0.00 0.00 0.00 0.00 0.00 0.00 0.00 0.00 0.00 0.00 0.00 0.00 0.00 0.00
0.49 0.26 0.19 0.17 0.10 0.14 0.15 0.20 0.36 0.28 0.32 0.60 0.43 0.34 0.16 0.06 0.09 0.09 0.15 0.22 0.43 0.67 0.50 0.53 0.33 0.13 0.20 0.17 0.05 0.00 0.00 0.00 0.00 0.00 0.00 0.00 0.00 0.00 0.00 0.00 0.00 0.00 0.00 0.00
0.30 0.18 0.13 0.07 0.04 0.11 0.12 0.25 0.62 0.58 0.57 0.68 0.78 0.66 0.48 0.14 0.23 0.27 0.30 0.31 0.55 0.89 0.66 0.41 0.33 0.29 0.53 0.34 0.05 0.00 0.01 0.01 0.01 0.01 0.00 0.00 0.00 0.00 0.00 0.00 0.00 0.00 0.00 0.00
0.16 0.08 0.04 0.01 0.08 0.06 0.07 0.05 0.19 0.49 0.88 0.91 1.04 0.98 0.96 0.32 0.53 0.46 0.40 0.39 0.48 1.03 0.74 0.34 0.24 0.35 0.35 0.20 0.02 0.05 0.04 0.04 0.02 0.01 0.02 0.01 0.01 0.00 0.00 0.00 0.00 0.00 0.00 0.00
0.06 0.01 0.02 0.08 0.06 0.04 0.12 0.21 0.40 0.63 1.02 0.82 0.77 0.90 0.80 0.64 0.64 0.48 0.56 0.47 0.57 0.72 0.54 0.23 0.25 0.27 0.29 0.06 0.08 0.11 0.14 0.15 0.17 0.13 0.06 0.06 0.05 0.02 0.03 0.02 0.03 0.04 0.04 0.04
0.03 0.01 0.04 0.11 0.02 0.05 0.48 0.83 1.06 1.07 0.83 0.58 0.62 0.54 0.45 0.89 0.67 0.60 0.65 0.35 0.56 0.65 0.31 0.24 0.30 0.19 0.03 0.05 0.12 0.09 0.15 0.30 0.34 0.42 0.30 0.17 0.23 0.14 0.10 0.15 0.11 0.12 0.14 0.14
0.02 0.02 0.05 0.04 0.05 0.62 1.16 1.33 1.06 0.65 0.44 0.43 0.40 0.40 0.37 0.48 0.55 0.38 0.42 0.50 0.46 0.70 0.47 0.32 0.31 0.30 0.12 0.07 0.05 0.04 0.08 0.18 0.14 0.31 0.32 0.20 0.30 0.35 0.25 0.29 0.33 0.34 0.35 0.34
0.05 0.07 0.06 0.12 0.44 1.03 0.97 0.96 0.59 0.25 0.21 0.22 0.27 0.28 0.33 0.43 0.30 0.49 0.40 0.36 0.33 0.35 0.32 0.45 0.41 0.27 0.18 0.20 0.09 0.06 0.04 0.06 0.07 0.10 0.22 0.18 0.11 0.16 0.19 0.27 0.30 0.29 0.34 0.36
0.07 0.09 0.18 0.30 0.56 0.73 0.55 0.45 0.25 0.10 0.09 0.08 0.11 0.26 0.22 0.39 0.36 0.41 0.46 0.26 0.16 0.34 0.44 0.40 0.18 0.06 0.03 0.10 0.19 0.20 0.16 0.10 0.25 0.27 0.18 0.11 0.09 0.11 0.14 0.15 0.11 0.10 0.11 0.10
0.17 0.20 0.22 0.27 0.32 0.37 0.27 0.17 0.15 0.05 0.04 0.03 0.05 0.12 0.20 0.27 0.23 0.24 0.26 0.13 0.28 0.49 0.33 0.22 0.07 0.06 0.04 0.02 0.05 0.10 0.14 0.13 0.24 0.56 0.60 0.44 0.44 0.40 0.30 0.21 0.15 0.12 0.11 0.07
0.31 0.27 0.18 0.15 0.22 0.09 0.05 0.04 0.06 0.02 0.02 0.03 0.02 0.08 0.13 0.18 0.23 0.21 0.20 0.28 0.46 0.31 0.26 0.17 0.10 0.09 0.08 0.06 0.03 0.03 0.07 0.13 0.16 0.25 0.33 0.40 0.29 0.16 0.20 0.27 0.25 0.17 0.13 0.10
0.51 0.34 0.18 0.11 0.07 0.05 0.01 0.01 0.03 0.02 0.02 0.05 0.06 0.11 0.14 0.16 0.26 0.21 0.27 0.47 0.40 0.24 0.16 0.10 0.05 0.09 0.07 0.05 0.04 0.01 0.00 0.01 0.06 0.14 0.19 0.24 0.22 0.16 0.13 0.17 0.27 0.23 0.20 0.22
0.59 0.19 0.10 0.10 0.06 0.06 0.05 0.02 0.01 0.02 0.07 0.17 0.25 0.26 0.13 0.12 0.14 0.13 0.21 0.32 0.20 0.10 0.06 0.02 0.01 0.01 0.01 0.01 0.00 0.00 0.00 0.01 0.03 0.09 0.13 0.20 0.25 0.24 0.18 0.16 0.16 0.16 0.22 0.28